FENGYUN 1C DEB, 30089

Orbit data source: Space-Track

FENGYUN 1C DEB, 30089 is space debris in SSO originally from a launch on Mon, 10 May 1999 UTC launched from the Taiyaun Space Center, China (TSC). Fengyun 1C debris stems from the Chinese weather satellite Fengyun-1C, which was intentionally destroyed by a Chinese anti-satellite missile in 2007. This event dramatically increased the amount of space debris, with thousands of trackable fragments posing hazards to satellites and human spaceflight. The Fengyun 1C debris cloud has become a focal point in discussions about space sustainability and the need for international regulations to prevent the creation of new debris.

Loading next visibility...
Identifier
30089, 1999-025QS
Orbit
SSO
Country
Flag of CNCN / PRC
Related business
Manufacturer
Unknown
Mission
Spacecraft
Bus & Motor
Unknown
Mass
Unknown
Launch date (UTC)
1999-05-10 (27 years ago)
Launch vehicle
Unknown
Launch site
Taiyaun Space Center, China (TSC)
Object type
Payload
Rocket body
Debris
Shape & HBR
Unknown shape, 0.1 m
Radar Cross Section
Medium (>0.1 m² and <1 m²)

Expand to show TLE details & history
Last TLE update: 1 week ago

TLE from 1 week ago
0 FENGYUN 1C DEB
1 30089U 99025QS  26154.29661663  .00000629  00000-0  25125-3 0  9997
2 30089  98.8982  68.6722 0074966  67.9310  53.6867 14.30531348  9450
Epoch: 2026-06-03T07:07Z
TLE epoch observation values (Epoch: 2026-06-03T07:07:07.676Z)
Latitude
56.71277°
Longitude
-96.14639°
Altitude
767.843 km
Speed
7.492 km/s
True Right ascension
17h 29m 34s
True Declination
56° 33' 18"
Sunlit
Object was in daylight at epoch
Visualization orbit readout
Latitude
Unknown
Longitude
Unknown
Altitude
Unknown
Speed
Unknown
Apparent Right ascension
Unknown
Apparent Declination
Unknown
Sunlit
N/A
Visualization observer readout
Local Sidereal Time
02:41:44
Azimuth
Unknown
Elevation
Unknown
Doppler factor
Unknown
Orbital elements
Apogee altitude
840.824 km
Perigee altitude
733.394 km
Semi-major axis
7,165.246 km
Eccentricity
0.0075
Inclination
98.8982°
RAAN
68.6722°
Arg. of periapsis
67.931°
True anomaly
54.38276°
Mean anomaly
53.6867°
Eccentric anomaly
54.03434°
Mean motion
3.57846 °/min
Orbital period
100.6 mins
BSTAR
0.00025125
Loading maneuver chart data...
Computing Atmospheric mass density...

Documentation

Showing up to 5 results
|